カタログに戻る

CZ-4 DEB

運用中SSO
NORAD 37609·DEBRIS·🇨🇳 China

打ち上げ Sep 3, 1990 から Taiyuan Satellite Launch Center

Loading…

次のパス (今後24時間)

TLE

経年Source: Space-Track

元期: Sep 7, 2026, 05:07 UTC

1 37609U 90081CV  26250.21369760  .00000132  00000-0  99889-4 0  9995
2 37609  98.9302 230.4172 0065115 220.5826 151.6734 14.09168434164222

AllMySatでCZ-4 DEBをリアルタイム追跡

Download on the App Store